SCP
1 0 0 0 0 0 0 0 0 0 0 0 0 0 0 0 0 0 0 0 0 0 0 0 0 0 0 0 0 0 0 0 0 0 0 0 0 0
0 0 0 0 0 0 0 0 0 0 0 0 0 0 0 0 0 0 0 0 0 0 0 0 0 0 0 0 0 0 0 0 0 0 0 0 0 0
0 0 0 0 0 0 0 0 0 0 0 0 0 0 0 0 0 0 0 0 0 0 0 0 0 0 0 0 0 0 0 0 0 0 0 0 0 0
0 0 0 0 0 0 0 0 0 0 0 0 0 0 0 0 0 0 0 0 0 0 0 0 0 0 0 0 0 0 0 0 0 0 0 0 0 0
0 0 0 0 0 0 0 0 0 0 0 0 0 0 0 0 0 0 0 0 0 0 0 0 0 0 0 0 0 0 0 0 0 0 0 0 0 0
0 0 0 0 0 0 0 0 0 0 0 0 0 0 0 0 0 0 0 0 0 0 0 0 0 0 0 0 0 0 0 0 0 0 0 0 0 0
0 0 0 0 0 0 0 0 0 0 0 0 0 0 0 0 0 0 0 0 0 0 0 0 0 0 0 0 0 0 0 0 0 0 0 0 0 0
0 0 0 0 0 0 0 0 0 0 0 0 0 0 0 0 0 0 0 0 0 0 0 0 0 0 0 0 0 0 0 0 0 0 0 0 0 0
0 0 0 0 0 0 0 0 0 0 0 0 0 0 0 0 0 0 0 0 0 0 0 0 0 0 0 0 0 0 0 0 0 0 0 0 0 0
0 0 0 0 0 0 0 0 0 0 0 0 0 0 0 0 0 0 0 0 0 0 0 0 0 0 0 0 0 0 0 0 0 0 0 0 0 0
0 0 0 0 0 0 0 0 0 0 0 0 0 0 0 0 0 0 0 0 0 0 0 0 0 0 0 0 0 0 0 0 0 0 0 0 0 0
0 0 0 0 0 0 0 0 0 0 0 0 0 0 0 0 0 0 0 0 0 0 0 0 0 0 0 0 0 0 0 0 0 0 0 0 0 0
0 0 0 0 0 0 0 0 0 0 0 0 0 0 0 0 0 0 0 0 0 0 0 0 0 0 0 0 0 0 0 0 0 0 0 0 0 0
0 0 0 0 0 0 0 0 0 0 0 0 0 0 0 0 0 0 0 0 0 0 0 0 0 0 0 0 0 0 0 0 0 0 0 0 0 0
0 0 0 0 0 0 0 0 0 0 0 0 0 0 0 0 0 0 0 0 0 0 0 0 0 0 0 0 0 0 0 0 0 0 0 0 0 0
0 0 0 0 0 0 0 0 0 0 0 0 0 0 0 0 0 0 0 0 0 0 0 0 0 0 0 0 0 0 0 0 0 0 0 0 0 0
0 0 0 0 0 0 0 0 0 0 0 0 0 0 0 0 0 0 0 0 0 0 0 0 0 0 0 0 0 0 0 0 0 0 0 0 0 0
-0 -0 0 0 0 0 0 0 0 0 0 0 0 0 0 0 0 0 0 0 0 0 0 0 0 0 0 0 0 0 0 0 0 0 0 0 0 0
-0 -0 -0 0 0 0 0 0 0 0 0 0 0 0 0 0 0 0 0 0 0 0 0 0 0 0 0 0 0 0 0 0 0 0 0 0 0 0
-0 -0 -0 0 0 0 0 0 0 0 0 0 0 0 0 0 0 0 0 0 0 0 0 0 0 0 0 0 0 0 0 0 0 0 0 0 0 0
-0 0 0 0 0 0 0 0 0 0 0 0 0 0 0 0 0 0 0 0 0 0 0 0 0 0 0 0 0 0 0 0 0 0 0 0 0 0
-0 0 0 0 0 0 0 0 0 0 0 0 0 0 0 0 0 0 0 0 0 0 0 0 0 0 0 0 0 0 0 0 -0 -0 0 0 0 0
-0 0 0 0 0 0 0 0 0 0 0 0 0 0 0 0 0 0 0 0 0 0 0 0 0 0 0 0 0 0 0 0 -0 -0 -0 -0 0 0
Wind_Speed
1 0 1 1 1 2 2 2 2 3 3 1 1 1 1 1 1 2 1 2 5 5 4 4 4 5 6 7 9 10 11 13 14 15 17 18 22 26
1 1 1 2 2 2 2 2 2 2 2 3 2 3 3 4 2 3 2 2 5 5 4 4 4 4 5 7 9 10 12 13 15 16 17 18 19 23
3 4 4 4 3 3 3 3 2 2 2 3 2 3 4 4 3 3 2 2 2 6 5 5 4 4 5 7 9 10 12 13 15 16 17 18 19 22
5 5 5 5 5 4 4 4 3 2 2 3 2 3 4 4 4 4 3 3 1 5 6 5 5 5 5 7 9 10 11 13 14 15 16 17 20 23
7 7 7 6 6 5 5 5 4 5 3 2 3 3 3 4 4 4 4 3 3 1 5 5 5 5 6 6 8 9 10 12 13 14 14 16 20 23
7 7 7 6 6 6 6 6 6 5 4 4 4 4 4 6 5 5 4 3 3 4 3 1 3 5 5 5 6 8 9 10 11 11 13 15 18 22
6 7 7 7 8 7 6 6 7 6 6 5 5 5 6 7 7 5 5 4 2 3 3 2 2 1 2 3 5 7 8 8 8 7 9 13 17 20
5 5 6 7 6 6 7 8 8 7 6 6 5 5 6 6 6 6 5 5 4 4 4 3 3 3 2 2 5 7 7 7 6 3 3 8 13 18
6 6 7 9 8 5 3 2 4 5 5 4 5 4 4 5 6 7 6 4 2 4 3 3 3 3 3 3 6 6 7 7 7 6 6 9 12 15
6 6 6 7 8 8 4 4 4 3 3 3 2 3 4 4 5 6 6 5 2 2 3 3 3 2 2 2 4 5 6 8 9 9 10 12 14 15
7 7 6 6 10 11 6 5 5 4 2 3 4 6 8 8 5 5 7 6 5 3 4 3 3 2 1 1 2 4 6 8 9 10 10 12 13 12
6 6 9 7 8 10 6 5 6 6 7 7 4 4 3 4 6 4 4 5 6 4 6 5 4 3 2 1 1 1 2 5 7 8 8 8 8 5
5 6 4 5 7 8 5 4 4 6 6 5 3 4 4 5 5 5 4 3 3 3 5 5 4 4 3 2 1 1 1 2 2 3 5 6 5 2
4 6 4 3 4 5 4 7 10 9 4 4 4 4 4 4 4 5 5 4 2 1 3 4 3 4 4 3 2 1 2 2 2 2 3 4 3 3
5 5 5 3 1 3 4 6 6 4 4 4 4 4 4 4 4 4 6 6 5 5 5 5 4 4 4 3 3 3 2 2 2 2 2 3 3 2
4 4 4 4 4 5 4 3 1 2 2 3 3 3 4 4 4 4 4 4 4 4 5 7 6 6 4 4 4 4 4 3 3 2 2 2 2 3
4 3 3 4 5 4 3 2 3 3 3 3 3 3 4 4 4 4 4 4 4 4 5 5 6 4 5 5 4 5 4 3 3 2 2 2 2 2
2 4 5 4 3 2 2 3 4 3 3 3 3 3 3 3 3 3 4 4 4 4 4 5 6 5 4 4 6 5 5 4 3 3 2 1 1 2
2 4 3 2 2 2 2 3 4 4 1 2 3 3 3 3 3 3 3 4 4 4 3 4 5 5 6 5 4 5 5 4 4 4 3 2 1 1
4 5 3 3 2 2 2 3 3 3 2 2 2 2 3 3 3 3 3 3 4 4 3 3 4 3 3 3 3 3 5 4 4 4 4 2 2 3
7 6 4 4 4 3 3 2 2 3 3 1 0 1 2 3 3 3 3 3 3 3 4 3 3 5 3 2 2 2 2 3 2 2 3 3 2 1
6 6 4 4 4 4 4 3 2 3 4 2 1 1 1 2 3 4 3 4 3 4 4 4 4 4 3 3 3 2 2 1 0 1 1 1 2 2
6 5 4 5 5 4 4 5 4 3 2 2 1 1 1 1 2 2 3 4 4 4 5 4 4 4 4 4 4 3 4 3 1 1 1 1 2 4
Wind_Direction
221 228 285 306 333 331 325 332 333 332 340 39 26 72 22 21 108 286 284 200 216 223 228 238 248 259 266 268 267 264 260 255 251 249 247 239 223 212
128 103 58 23 13 349 355 351 348 340 331 346 6 21 15 352 15 325 314 203 220 219 222 230 244 262 276 281 280 275 269 262 255 247 241 234 219 207
79 77 64 52 24 9 360 359 0 0 329 335 8 15 16 353 344 325 305 249 208 210 216 226 241 259 277 286 287 283 279 271 261 249 238 227 212 200
84 74 57 51 35 23 360 6 353 335 334 349 7 19 17 353 340 329 332 328 291 200 208 225 245 266 282 292 294 292 287 279 266 250 236 220 204 196
78 70 59 47 32 9 15 11 1 360 354 25 42 34 19 1 352 349 357 344 327 190 203 227 248 272 286 298 305 305 301 290 271 251 232 212 198 190
77 70 61 52 31 4 31 17 10 3 20 33 39 33 18 3 5 354 358 358 4 7 351 300 259 266 281 305 319 324 320 307 284 255 228 206 192 184
92 90 79 73 62 44 44 25 22 23 25 26 34 30 15 7 3 346 353 344 11 21 339 350 328 312 317 330 339 346 346 337 315 271 227 201 185 175
75 88 99 66 62 62 62 54 46 42 30 27 30 21 14 3 348 342 347 348 352 359 342 350 357 352 355 13 10 6 9 9 1 348 190 180 170 163
56 43 56 53 37 20 26 60 63 57 45 42 37 13 9 355 344 342 344 345 345 337 333 341 354 5 6 26 25 29 34 43 46 59 98 123 134 138
65 56 69 51 24 2 7 38 48 47 29 43 23 346 353 338 337 337 337 340 340 8 353 337 342 346 356 17 32 44 57 64 68 73 88 99 108 115
77 52 59 56 20 12 20 29 26 13 340 296 283 289 298 305 322 351 356 359 350 3 11 343 327 315 329 9 37 60 72 79 81 83 85 94 102 106
111 90 67 59 36 26 25 27 19 349 334 326 305 291 317 13 19 26 9 354 351 348 0 347 341 336 333 357 18 58 81 83 88 92 97 103 109 107
137 117 89 62 45 26 17 26 354 318 304 313 360 24 20 21 12 1 358 348 350 342 345 346 337 341 331 326 350 11 70 104 106 100 110 123 131 119
86 106 116 87 41 6 1 352 346 344 343 10 27 21 15 10 350 344 341 335 321 330 0 0 343 344 338 335 342 3 40 63 100 117 123 139 158 190
89 114 136 158 298 285 285 318 341 6 4 14 20 11 358 350 347 353 347 344 357 33 34 19 7 349 355 353 350 358 23 34 51 91 113 129 136 146
147 153 187 221 256 283 274 263 185 58 3 7 15 0 351 355 3 4 355 348 359 10 21 17 10 9 6 11 24 24 22 23 18 45 97 115 126 130
159 172 205 215 221 221 183 113 75 50 13 19 25 11 1 360 1 3 0 356 0 2 9 10 2 17 45 25 26 27 23 23 18 21 50 81 93 114
160 227 221 209 173 131 103 118 106 70 2 16 39 18 358 358 1 1 18 6 358 360 11 16 6 355 358 51 30 18 16 9 1 7 16 53 92 110
200 255 233 157 126 129 118 96 102 110 8 31 48 16 351 354 10 360 34 9 350 349 2 27 22 4 358 1 16 26 11 360 0 7 10 14 32 104
230 248 214 152 145 127 105 95 101 106 73 25 63 23 349 350 13 357 24 24 338 338 0 33 23 354 342 335 344 17 25 10 4 3 355 359 48 78
218 236 211 167 167 155 137 140 147 135 129 262 107 60 358 350 7 356 359 8 344 355 1 9 354 325 304 334 6 15 27 30 21 3 348 351 7 29
219 223 199 172 174 165 156 173 198 170 166 199 141 89 31 9 357 356 4 359 2 5 354 346 351 348 347 351 355 2 11 360 94 82 55 27 360 1
225 219 195 185 187 173 173 187 200 203 178 170 156 125 76 28 346 351 4 5 3 358 350 348 350 347 346 346 354 356 358 359 17 77 88 219 241 263